Location: ??????
(55.8274°N, 37.9338°E)
Time: 14:28:26
(UTC+00:00)

CZ-2C R/B - Visible Passes

Search period start: 12 July 2024 00:00
Search period end: 22 July 2024 00:00
Orbit: 784 x 868 km, 98.3° (Epoch: 11 July)

Date Brightness Start Highest point End Pass type
(mag) Time Alt. Az. Time Alt. Az. Time Alt. Az.
12 Jul 5.4 20:24:18 10° NE 20:25:53 11° NE 20:27:29 10° NNE visible
12 Jul 4.2 21:59:39 10° ESE 22:04:41 36° ENE 22:09:46 10° N visible
12 Jul 3.0 23:39:18 10° S 23:44:45 56° W 23:50:18 10° NNW visible
13 Jul 4.5 21:41:08 10° ESE 21:45:50 28° NE 21:50:32 10° N visible
13 Jul 2.8 23:20:04 10° S 23:25:38 74° WSW 23:31:18 10° NNW visible
14 Jul 4.9 21:22:46 10° E 21:27:00 23° NE 21:31:16 10° N visible
14 Jul 2.8 23:00:59 10° SSE 23:06:35 85° ENE 23:12:14 10° NNW visible
15 Jul 5.1 21:04:32 10° E 21:08:14 18° NE 21:11:56 10° N visible
15 Jul 3.2 22:42:02 10° SSE 22:47:33 65° ENE 22:53:09 10° NNW visible
16 Jul 5.2 20:46:31 10° ENE 20:49:29 15° NE 20:52:29 10° N visible
16 Jul 3.6 22:23:13 10° SE 22:28:36 50° ENE 22:34:00 10° N visible
17 Jul 3.4 00:03:49 10° SSW 00:09:00 38° W 00:14:14 10° NNW visible
17 Jul 5.4 20:28:47 10° ENE 20:30:48 12° NE 20:32:48 10° NNE visible
17 Jul 4.0 22:04:31 10° SE 22:09:40 39° ENE 22:14:50 10° N visible
17 Jul 3.1 23:44:22 10° S 23:49:49 51° W 23:55:19 10° NNW visible
18 Jul 4.4 21:45:58 10° ESE 21:50:48 31° NE 21:55:37 10° N visible
18 Jul 2.8 23:25:07 10° S 23:30:41 68° WSW 23:36:19 10° NNW visible
19 Jul 4.7 21:27:33 10° ESE 21:31:57 24° NE 21:36:21 10° N visible
19 Jul 2.8 23:05:59 10° SSE 23:11:36 88° WSW 23:17:16 10° NNW visible
20 Jul 5.0 21:09:17 10° E 21:13:09 20° NE 21:17:02 10° N visible
20 Jul 3.0 22:46:59 10° SSE 22:52:34 71° ENE 22:58:10 10° NNW visible
21 Jul 5.2 20:51:12 10° E 20:54:24 16° NE 20:57:37 10° N visible
21 Jul 3.4 22:28:09 10° SE 22:33:35 54° ENE 22:39:02 10° N visible
